User: anonymous   Login
Location: Unspecified
(0.0000°N, 0.0000°E)
Time: 20:17:20
(UTC+01:00)
Language:

SJ-6B - Orbit

View from above orbital plane
View from above orbital plane
View from above satellite
View from above satellite

Ground track
Ground track

The orbit data is extracted from the following two-line orbital elements,

1 28415U 04035C   17019.53290616  .00000276  00000-0  22981-4 0  9993
2 28415  97.7616  47.8158 0050965 265.5447  93.9956 15.06034986676203
Epoch (UTC): 19 January 2017 12:47:23
Eccentricity: 0.0050965
inclination: 97.7616°
perigee height: 513 km
apogee height: 583 km
right ascension of ascending node: 47.8158°
argument of perigee: 265.5447°
revolutions per day: 15.06034986
mean anomaly at epoch: 93.9956°
orbit number at epoch: 67620

The dashed part of the orbit path shows where the satellite is in the earth's shadow,  

DLR